THORAD DELTA 1 DEB, 42593

Orbit data source: Space-Track

THORAD DELTA 1 DEB, 42593 is space debris in LEO originally from a launch on Fri, 15 Nov 1974 UTC launched from the Air Force Western Test Range (AFWTR). Debris objects in space refer to the collection of defunct objects orbiting the Earth. Examples of debris include non-operational satellites, rocket bodies, and fragments generated from explosions, collisions, or faulty payload assembly.

Loading next visibility...
Identifier
42593, 1974-089FJ
Orbit
LEO
Country
Flag of USUS
Related business
Manufacturer
Unknown
Mission
Spacecraft
Bus & Motor
Unknown
Mass
Unknown
Launch date (UTC)
1974-11-15 (51 years ago)
Launch vehicle
Unknown
Launch site
Air Force Western Test Range (AFWTR)
Object type
Payload
Rocket body
Debris
Shape & HBR
Unknown shape, 0.1 m
Radar Cross Section
Small (<0.1 m²)

Expand to show TLE details & history
Last TLE update: 4 days ago

TLE from 4 days ago
0 THORAD DELTA 1 DEB
1 42593U 74089FJ  25307.01595226  .00000552  00000-0  72267-2 0  9996
2 42593 101.1928 227.2617 0382458  14.1134  48.2179 11.84008093516498
Epoch: 2025-11-03T00:22Z
TLE epoch observation values (Epoch: 2025-11-03T00:22:58.275Z)
Latitude
63.47859°
Longitude
155.7564°
Altitude
1,563.642 km
Speed
7.178 km/s
True Right ascension
13h 36m 05s
True Declination
63° 21' 18"
Sunlit
Object was in daylight at epoch
Visualization orbit readout
Latitude
Unknown
Longitude
Unknown
Altitude
Unknown
Speed
Unknown
Apparent Right ascension
Unknown
Apparent Declination
Unknown
Sunlit
N/A
Visualization observer readout
Local Sidereal Time
22:51:33
Azimuth
Unknown
Elevation
Unknown
Doppler factor
Unknown
Orbital elements
Apogee altitude
2,061.763 km
Perigee altitude
1,439.962 km
Semi-major axis
8,129 km
Eccentricity
0.03825
Inclination
101.1928°
RAAN
227.2617°
Arg. of periapsis
14.1134°
True anomaly
51.59139°
Mean anomaly
48.2179°
Eccentric anomaly
49.89394°
Mean motion
2.96133 °/min
Orbital period
121.57 mins
BSTAR
0.0072267
Loading maneuver chart data...
Computing Atmospheric mass density...
Loading historical data...
Loading historical data...
Loading historical data...
Loading historical data...
Loading historical data...
Loading historical data...
Loading historical data...

Documentation

Showing up to 5 results
|